Weather History for Toms River, NJ

Change the Weather History Date:

Saturday, February 22, 2014

  Actual Average Record
Temperature  
Mean Temperature 43 °F -  
Max Temperature 60 °F 46 °F 62 °F (2012)
Min Temperature 26 °F 25 °F 5 °F (1968)
Degree Days  
Heating Degree Days 22    
Moisture  
Dew Point 27 °F    
Average Humidity 60    
Maximum Humidity 100    
Minimum Humidity 21    
Precipitation  
Precipitation 0.00 in - - ()
Sea Level Pressure  
Sea Level Pressure 30.04 in    
Wind  
Wind Speed 3 mph (SW)    
Max Wind Speed 20 mph    
Max Gust Speed 30 mph    
Visibility 10 miles    
Events      
Averages and records for this station are not official NWS values.
T = Trace of Precipitation, MM = Missing Value Source: NWS Daily Summary

Daily Weather History Graph

Daily Weather History Graph

Search for Another Location

Airport:

Trip Planner

Search our weather history database for the weather conditions in past years. The results will help you decide how hot, cold, wet, or windy it might be!

Date:

Astronomy

Feb. 22, 2014 Rise Set
Actual Time 6:40 AM EST 5:41 PM EST
Civil Twilight 6:13 AM EST 6:08 PM EST
Nautical Twilight 5:41 AM EST 6:40 PM EST
Astronomical Twilight 5:10 AM EST 7:11 PM EST
Moon 12:33 AM EST (2/22) 10:50 AM EST (2/22)
Length of Visible Light 11h 55m
Length of Day
11h 00m
Waning Gibbous, 50% of the Moon is Illuminated
Feb 22
Waning Gibbous
Feb 22
Last Quarter
Mar 1
New
Mar 8
First Quarter
Mar 16
Full

Hourly Weather History & Observations

Time (EST) Temp. Windchill Dew Point Humidity Pressure Visibility Wind Dir Wind Speed Gust Speed Precip Events Conditions
12:15 AM 30.2 °F - 28.4 °F 93% 29.95 in 10.0 mi Calm Calm - N/A   Clear
12:35 AM 30.2 °F - 28.4 °F 93% 29.95 in 10.0 mi Calm Calm - N/A   Clear
12:55 AM 30.2 °F - 30.2 °F 100% 29.96 in 10.0 mi Calm Calm - N/A   Clear
1:15 AM 35.6 °F 32.8 °F 33.8 °F 93% 29.96 in 10.0 mi WNW 3.5 mph - N/A   Clear
1:35 AM 35.6 °F - 32.0 °F 87% 29.97 in 10.0 mi Calm Calm - N/A   Clear
1:55 AM 32.0 °F - 28.4 °F 87% 29.98 in 10.0 mi Calm Calm - N/A   Clear
2:15 AM 32.0 °F - 28.4 °F 87% 29.98 in 10.0 mi Calm Calm - N/A   Clear
2:35 AM 30.2 °F - 28.4 °F 93% 29.99 in 10.0 mi Calm Calm - N/A   Clear
2:55 AM 30.2 °F - 26.6 °F 86% 29.99 in 10.0 mi Calm Calm - N/A   Clear
3:15 AM 30.2 °F - 26.6 °F 86% 30.00 in 10.0 mi Calm Calm - N/A   Clear
3:35 AM 28.4 °F - 28.4 °F 100% 30.01 in 10.0 mi Calm Calm - N/A   Clear
3:55 AM 32.0 °F - 32.0 °F 100% 30.01 in 10.0 mi Calm Calm - N/A   Clear
4:15 AM 32.0 °F - 30.2 °F 93% 30.02 in 10.0 mi Calm Calm - N/A   Clear
4:35 AM 32.0 °F - 30.2 °F 93% 30.03 in 10.0 mi Calm Calm - N/A   Clear
4:55 AM 30.2 °F - 28.4 °F 93% 30.04 in 10.0 mi Calm Calm - N/A   Clear
5:15 AM 28.4 °F - 26.6 °F 93% 30.05 in 10.0 mi Calm Calm - N/A   Clear
5:35 AM 28.4 °F - 26.6 °F 93% 30.06 in 10.0 mi Calm Calm - N/A   Clear
5:55 AM 28.4 °F - 28.4 °F 100% 30.07 in 10.0 mi Calm Calm - N/A   Clear
6:15 AM 26.6 °F - 26.6 °F 100% 30.07 in 10.0 mi Calm Calm - N/A   Clear
6:35 AM 28.4 °F - 24.8 °F 86% 30.07 in 10.0 mi Calm Calm - N/A   Clear
6:55 AM 26.6 °F - 23.0 °F 86% 30.07 in 10.0 mi Calm Calm - N/A   Clear
7:15 AM 28.4 °F - 26.6 °F 93% 30.07 in 10.0 mi Calm Calm - N/A   Clear
7:35 AM 32.0 °F - 32.0 °F 100% 30.08 in 10.0 mi Calm Calm - N/A   Clear
7:55 AM 33.8 °F - 30.2 °F 87% 30.09 in 10.0 mi Calm Calm - N/A   Clear
8:15 AM 37.4 °F - 32.0 °F 81% 30.09 in 10.0 mi Calm Calm - N/A   Clear
8:35 AM 39.2 °F - 33.8 °F 81% 30.09 in 10.0 mi Calm Calm - N/A   Clear
8:55 AM 42.8 °F - 33.8 °F 70% 30.09 in 10.0 mi Calm Calm - N/A   Clear
9:15 AM 44.6 °F - 32.0 °F 61% 30.10 in 10.0 mi Calm Calm - N/A   Clear
9:35 AM 46.4 °F 44.3 °F 33.8 °F 62% 30.10 in 10.0 mi WSW 4.6 mph - N/A   Clear
9:55 AM 48.2 °F - 28.4 °F 46% 30.10 in 10.0 mi SW 6.9 mph - N/A   Clear
10:15 AM 48.2 °F - 26.6 °F 43% 30.10 in 10.0 mi WSW 8.1 mph - N/A   Clear
10:35 AM 51.8 °F - 24.8 °F 35% 30.09 in 10.0 mi WSW 9.2 mph - N/A   Clear
10:55 AM 51.8 °F - 23.0 °F 33% 30.09 in 10.0 mi WSW 8.1 mph - N/A   Clear
11:15 AM 53.6 °F - 23.0 °F 30% 30.08 in 10.0 mi SW 12.7 mph - N/A   Clear
11:35 AM 53.6 °F - 24.8 °F 33% 30.08 in 10.0 mi WSW 8.1 mph 17.3 mph N/A   Clear
11:55 AM 55.4 °F - 24.8 °F 31% 30.08 in 10.0 mi WSW 9.2 mph 16.1 mph N/A   Clear
12:15 PM 55.4 °F - 24.8 °F 31% 30.07 in 10.0 mi West 17.3 mph 24.2 mph N/A   Clear
12:35 PM 57.2 °F - 24.8 °F 29% 30.06 in 10.0 mi WSW 15.0 mph 23.0 mph N/A   Clear
12:55 PM 57.2 °F - 24.8 °F 29% 30.03 in 10.0 mi SW 19.6 mph 23.0 mph N/A   Clear
1:15 PM 57.2 °F - 24.8 °F 29% 30.03 in 10.0 mi SW 13.8 mph 20.7 mph N/A   Clear
1:35 PM 59.0 °F - 23.0 °F 25% 30.02 in 10.0 mi WSW 12.7 mph 20.7 mph N/A   Clear
1:55 PM 59.0 °F - 21.2 °F 23% 30.01 in 10.0 mi WSW 17.3 mph 27.6 mph N/A   Clear
2:15 PM 59.0 °F - 21.2 °F 23% 30.01 in 10.0 mi West 18.4 mph 24.2 mph N/A   Clear
2:35 PM 60.8 °F - 21.2 °F 22% 30.01 in 10.0 mi West 13.8 mph 21.9 mph N/A   Clear
2:55 PM 59.0 °F - 19.4 °F 22% 30.00 in 10.0 mi WSW 16.1 mph 25.3 mph N/A   Clear
3:15 PM 59.0 °F - 19.4 °F 22% 30.00 in 10.0 mi SW 19.6 mph 29.9 mph N/A   Clear
3:35 PM 59.0 °F - 21.2 °F 23% 30.01 in 10.0 mi WSW 18.4 mph 25.3 mph N/A   Clear
3:55 PM 57.2 °F - 17.6 °F 21% 30.00 in 10.0 mi West 13.8 mph 21.9 mph N/A   Clear
4:15 PM 57.2 °F - 24.8 °F 29% 30.01 in 10.0 mi WSW 13.8 mph 24.2 mph N/A   Clear
4:35 PM 57.2 °F - 19.4 °F 23% 30.01 in 10.0 mi West 13.8 mph 26.5 mph N/A   Clear
4:55 PM 57.2 °F - 19.4 °F 23% 30.02 in 10.0 mi West 8.1 mph 16.1 mph N/A   Clear
5:15 PM 53.6 °F - 24.8 °F 33% 30.03 in 10.0 mi South 5.8 mph - N/A   Clear
5:35 PM 51.8 °F - 26.6 °F 38% 30.03 in 10.0 mi South 5.8 mph - N/A   Clear
5:55 PM 48.2 °F - 26.6 °F 43% 30.03 in 10.0 mi South 4.6 mph - N/A   Clear
6:15 PM 46.4 °F 44.3 °F 26.6 °F 46% 30.03 in 10.0 mi South 4.6 mph - N/A   Clear
6:35 PM 46.4 °F 45.2 °F 26.6 °F 46% 30.03 in 10.0 mi South 3.5 mph - N/A   Clear
6:55 PM 44.6 °F 43.1 °F 28.4 °F 53% 30.04 in 10.0 mi SSW 3.5 mph - N/A   Clear
7:15 PM 44.6 °F 43.1 °F 26.6 °F 49% 30.04 in 10.0 mi SSW 3.5 mph - N/A   Clear
7:35 PM 44.6 °F - 28.4 °F 53% 30.05 in 10.0 mi Calm Calm - N/A   Clear
7:55 PM 42.8 °F - 28.4 °F 57% 30.05 in 10.0 mi Calm Calm - N/A   Clear
8:15 PM 44.6 °F 43.1 °F 28.4 °F 53% 30.05 in 10.0 mi SSW 3.5 mph - N/A   Clear
8:35 PM 44.6 °F 42.2 °F 28.4 °F 53% 30.06 in 10.0 mi SW 4.6 mph - N/A   Clear
8:55 PM 42.8 °F 41.1 °F 28.4 °F 57% 30.06 in 10.0 mi SW 3.5 mph - N/A   Clear
9:15 PM 42.8 °F - 28.4 °F 57% 30.06 in 10.0 mi Calm Calm - N/A   Clear
9:35 PM 41.0 °F 39.0 °F 28.4 °F 61% 30.06 in 10.0 mi SW 3.5 mph - N/A   Clear
9:55 PM 42.8 °F 41.1 °F 28.4 °F 57% 30.05 in 10.0 mi SW 3.5 mph - N/A   Clear
10:15 PM 42.8 °F 40.1 °F 30.2 °F 61% 30.05 in 10.0 mi SW 4.6 mph - N/A   Clear
10:35 PM 42.8 °F 40.1 °F 30.2 °F 61% 30.05 in 10.0 mi SW 4.6 mph - N/A   Clear
10:55 PM 42.8 °F 41.1 °F 30.2 °F 61% 30.04 in 10.0 mi SW 3.5 mph - N/A   Clear
11:15 PM 42.8 °F 41.1 °F 30.2 °F 61% 30.04 in 10.0 mi SW 3.5 mph - N/A   Clear
11:35 PM 41.0 °F 39.0 °F 28.4 °F 61% 30.05 in 10.0 mi SW 3.5 mph - N/A   Clear
11:55 PM 41.0 °F - 28.4 °F 61% 30.05 in 10.0 mi Calm Calm - N/A   Clear